[Iaude] MPEC W47: 2016 WQ1 [a=1.80,e=0.47,i=0.2,H=28.0]

mpec at si.edu mpec at si.edu
Tue Nov 22 07:08:00 EST 2016


M.P.E.C. 2016-W47                                Issued 2016 Nov. 22, 12:03 UT
 
     The Minor Planet Electronic Circulars contain information on unusual
         minor planets and routine data on comets.  They are published
    on behalf of Division F of the International Astronomical Union by the
          Minor Planet Center, Smithsonian Astrophysical Observatory,
                          Cambridge, MA 02138, U.S.A.

             Prepared using the Tamkin Foundation Computer Network

                              MPC at CFA.HARVARD.EDU
            URL http://www.minorplanetcenter.net/    ISSN 1523-6714


                                   2016 WQ1
 
Observations:
     K16W01Q* C2016 11 20.40832 03 40 16.21 +15 57 26.9          18.6 VqEW047G96
     K16W01Q  C2016 11 20.41206 03 40 34.42 +15 58 38.7                qEW047G96
     K16W01Q  C2016 11 20.41678 03 40 57.29 +16 00 08.7                qEW047G96
     K16W01Q  C2016 11 20.43402 03 42 20.22 +16 05 31.0          17.7 VqEW047I52
     K16W01Q  C2016 11 20.43467 03 42 23.41 +16 05 42.9          18.3 VqEW047I52
     K16W01Q  C2016 11 20.43701 03 42 34.55 +16 06 26.4          18.7 VqEW047I52
     K16W01Q  C2016 11 20.43742 03 42 36.46 +16 06 33.6          18.3 VqEW047I52
     K16W01Q  C2016 11 20.44791 03 43 26.66 +16 09 45.2          18.1 VqEW047I52
     K16W01Q  C2016 11 20.44815 03 43 27.81 +16 09 49.7          18.2 VqEW047I52
     K16W01Q  C2016 11 20.44859 03 43 29.92 +16 09 57.6          17.9 VqEW047I52
     K16W01Q  C2016 11 20.44920 03 43 32.81 +16 10 08.7          17.7 VqEW047G96
     K16W01Q  C2016 11 20.44932 03 43 33.39 +16 10 11.0          17.8 VqEW047G96
     K16W01Q  C2016 11 20.44943 03 43 33.96 +16 10 13.0          17.8 VqEW047G96
     K16W01Q  C2016 11 20.44955 03 43 34.47 +16 10 15.2          17.8 VqEW047G96
     K16W01Q  C2016 11 20.45103 03 43 41.57 +16 10 41.9          17.6 VqEW047I52
     K16W01Q KC2016 11 20.45923 03 44 20.80 +16 13 19.3          19.0 RoEW047291
     K16W01Q KC2016 11 20.45997 03 44 24.30 +16 13 32.6          18.9 RoEW047291
     K16W01Q KC2016 11 20.46148 03 44 31.47 +16 13 59.4          19.0 RoEW047291
     K16W01Q  C2016 11 20.47346 03 45 28.12 +16 17 20.3          17.9 VqEW047G96
     K16W01Q  C2016 11 20.47452 03 45 33.16 +16 17 39.0          17.8 VqEW047G96
     K16W01Q  C2016 11 20.47558 03 45 38.17 +16 17 57.1          18.0 VqEW047G96
     K16W01Q  C2016 11 20.47670 03 45 43.51 +16 18 16.6          17.7 VqEW047G96
     K16W01Q KC2016 11 20.81881 04 11 44.61 +17 44 30.4          19.1 V EW047L04
     K16W01Q KC2016 11 20.82176 04 11 55.35 +17 45 11.2          18.7 V EW047L04
     K16W01Q KC2016 11 20.83117 04 12 29.27 +17 47 16.2          18.6 V EW047L04
     K16W01Q KC2016 11 20.83306 04 12 36.10 +17 47 41.7          18.4 V EW047L04
     K16W01Q KC2016 11 20.83758 04 12 52.23 +17 48 40.6          18.4 V EW047L04
     K16W01Q  C2016 11 20.95054 04 19 23.05 +18 11 03.0                qEW047246
     K16W01Q  C2016 11 20.95098 04 19 24.41 +18 11 08.9                qEW047246
     K16W01Q  C2016 11 20.95108 04 19 24.70 +18 11 09.6                qEW047246
     K16W01Q  C2016 11 20.95129 04 19 25.54 +18 11 12.1                qEW047246
     K16W01Q  C2016 11 20.95139 04 19 25.83 +18 11 13.2                qEW047246
     K16W01Q  C2016 11 20.95150 04 19 26.08 +18 11 13.3                qEW047246
     K16W01Q  C2016 11 20.95181 04 19 27.15 +18 11 17.8                qEW047246
     K16W01Q KC2016 11 21.37370604 40 25.42 +19 15 28.9          18.9 VuEW047H21
     K16W01Q KC2016 11 21.37498804 40 28.57 +19 15 37.4          19.0 VuEW047H21
     K16W01Q KC2016 11 21.37627104 40 31.76 +19 15 45.7          19.1 VuEW047H21
     K16W01Q KC2016 11 21.37755404 40 34.92 +19 15 53.9          19.0 VuEW047H21
     K16W01Q  C2016 11 21.87578 05 00 17.44 +20 01 21.7                qEW047246
     K16W01Q  C2016 11 21.87623 05 00 18.46 +20 01 25.6                qEW047246
 
Observer details:
246 Klet Observatory-KLENOT.  Observers M. Tichy, J. Ticha.  Measurer M. Tichy.
    1.06-m KLENOT Telescope + CCD.
291 LPL/Spacewatch II.  Observer T. H. Bressi.  1.8-m f/2.7 reflector + CCD.
G96 Mt. Lemmon Survey.  Observer G. J. Leonard.  Measurers E. J. Christensen,
    D. C. Fuls, A. R. Gibbs, A. D. Grauer, J. A. Johnson, R. A. Kowalski,
    S. M. Larson, G. J. Leonard, R. G. Matheny, R. L. Seaman, F. C. Shelly.
    1.5-m reflector + 10K CCD.
H21 Astronomical Research Observatory, Westfield.  Observer R. Holmes.
    Measurers S. Foglia, L. Buzzi, T. Linder, R. Holmes.  0.61-m f/4.5
    astrograph + CCD.
I52 Steward Observatory, Mt. Lemmon Station.  Observer R. A. Kowalski.
    Measurers E. J. Christensen, D. C. Fuls, A. R. Gibbs, A. D. Grauer,
    J. A. Johnson, R. A. Kowalski, S. M. Larson, G. J. Leonard, R. G. Matheny,
    R. L. Seaman, F. C. Shelly.  1.0-m reflector + CCD.
L04 ROASTERR-1 Observatory, Cluj-Napoca.  Observer L. Hudin.  0.3-m f/5.0
    reflector + CCD.
 
Orbital elements:
2016 WQ1                                                 Earth MOID = 0.0003 AU
Epoch 2017 Feb. 16.0 TT = JDT 2457800.5                 MPC
M  44.67928              (2000.0)            P               Q
n   0.40668949     Peri.  160.39739     +0.85968505     -0.51081499
a   1.8042391      Node   230.32113     +0.46813174     +0.79025616
e   0.4675377      Incl.    0.23136     +0.20443650     +0.33847193
P   2.42           H   28.0           G   0.15           U   6
Residuals in seconds of arc
161120 G96  1.0-  0.3+    161120 I52  0.1+  0.0     161120 246  0.4-  0.3+
161120 G96  0.4+  0.4+    161120 291  0.1-  0.1-    161120 246  0.9-  0.1-
161120 G96  1.1+  0.5+    161120 291  0.3-  0.0     161120 246  1.3+  0.0
161120 I52  0.3+  0.2-    161120 291  0.3-  0.0     161120 246  0.8+  0.0
161120 I52  1.3+  0.3-    161120 G96  0.2-  0.2+    161120 246  0.8-  1.1-
161120 I52  0.2+  0.0     161120 G96  0.1+  0.4+    161120 246  0.0   0.1-
161120 I52  0.6-  0.4-    161120 G96  0.0   0.1+    161121 H21  0.0   0.3-
161120 I52  0.2-  0.3-    161120 G96  0.6+  0.1+    161121 H21  0.2-  0.1-
161120 I52  0.2-  0.2-    161120 L04  0.1+  0.5+    161121 H21  0.1+  0.0
161120 I52  0.0   0.2-    161120 L04  0.4+  1.3+    161121 H21  0.0   0.1-
161120 G96  0.4-  0.2-    161120 L04  0.5-  0.0     161121 246  1.4-  0.5-
161120 G96  0.2-  0.1-    161120 L04  0.1+  0.4+    161121 246  1.4+  1.1+
161120 G96  0.4+  0.0     161120 L04  0.6-  0.6-
161120 G96  0.5-  0.0     161120 246  0.7+  0.6-

Ephemeris:
2016 WQ1                 a,e,i = 1.80, 0.47, 0                   q = 0.9607
Date    TT    R. A. (2000) Decl.     Delta      r     Elong.  Phase     V
2016 10 23    18 45 03.7 -22 07 18   0.1213  0.9615    70.6   102.5    27.1
...
2016 11 07    19 09 02.1 -21 47 59   0.05504 0.9657    61.2   115.9    26.2
...
2016 11 15    20 02 05.8 -20 37 42   0.01939 0.9812    65.6   113.4    23.8
...
2016 11 21    04 22 05.0 +18 26 45   0.01072 0.9985   171.5     8.4    18.7
2016 11 22    05 03 51.5 +20 15 31   0.01472 1.0017   162.9    16.9    19.7
2016 11 23    05 27 41.1 +21 00 24   0.01897 1.0051   158.3    21.3    20.4
...
2016 11 29    06 13 08.9 +21 52 28   0.04596 1.0279   153.9    25.0    22.5
...
2016 12 07    06 24 13.2 +22 02 30   0.08367 1.0639   159.4    19.0    23.7
...
2016 12 22    06 24 55.0 +22 15 41   0.1622  1.1452   174.5     4.7    24.8

A. U. Tomatic                (C) Copyright 2016 MPC           M.P.E.C. 2016-W47




More information about the Iaude mailing list